Regional Weather Roundup
Issued by NWS State College, PA

Home | Current Version | Previous Version | Text Only | Print | Product List | Glossary Off
Versions: 1 2 3 4 5 6 7 8 9 10 11 12 13 14 15 16 17 18 19 20 21 22 23 24 25 26 27 28 29 30 31 32 33 34 35 36 37 38 39 40 41 42 43 44 45 46 47 48 49 50

059
ASUS41 KCTP 241703
RWRCTP

REGIONAL WEATHER ROUNDUP
NATIONAL WEATHER SERVICE STATE COLLEGE PA
100 PM EDT SUN JUL 24 2016

Note: "fair" indicates few or no clouds below 12,000 feet with no
significant weather and/or obstructions to visibility.

* = STATION THAT DOES NOT REPORT PRECIPITATION /E.G. RAIN...SNOW...ETC/
    THUNDER OR FOG.

PAZ002>004-007>009-013>016-020>023-029>032-241800-
WESTERN PENNSYLVANIA

CITY           SKY/WX    TMP DP  RH WIND       PRES   REMARKS
ERIE           PTSUNNY   87  62  43 VRB3      29.99F
MEADVILLE      MOSUNNY   84  62  47 VRB3      30.03F
FRANKLIN*      MOSUNNY   84  64  51 S6        30.06F
NEW CASTLE     FAIR      92  62  36 VRB5      30.01F
BEAVER COUNTY  NOT AVBL
BUTLER*        SUNNY     88  63  42 S6        30.06S
PITTSBURGH INT MOSUNNY   88  68  51 S7        30.02F
PITTSBURGH     MOSUNNY   89  69  51 SW10      30.03F
INDIANA*       SUNNY     90  66  45 VRB6G16   30.07F
LATROBE        MOSUNNY   90  72  55 W9        30.04F HX  96
WASHINGTON CO* PTSUNNY   90  70  51 W6        30.04F HX  95
$$

PAZ004>006-010>012-017>019-024>028-033>037-041-042-045-046-049>053-241800-
CENTRAL PENNSYLVANIA

CITY           SKY/WX    TMP DP  RH WIND       PRES   REMARKS
BRADFORD       CLOUDY    80  58  46 VRB5      30.08F
DUBOIS         MOSUNNY   88  57  34 VRB6      30.06F
CLEARFIELD     MOSUNNY   90  58  33 SW8       30.05F
JOHNSTOWN      MOSUNNY   85  66  53 W10       30.10F
ALTOONA        MOSUNNY   90  63  40 S8        30.06F
STATE COLLEGE  SUNNY     86  59  39 S3        30.04F
WILLIAMSPORT   MOSUNNY   90  60  36 SE7       29.98F
SELINSGROVE    MOSUNNY   91  61  36 CALM      30.01F
FT INDIANTOWN  MOSUNNY   91  58  32 SW8       30.01F
CAPITAL CITY   SUNNY     91  60  35 VRB5      30.01F
HARRISBURG     PTSUNNY   90  63  40 SE5       30.01S
YORK           MOSUNNY   89  64  43 VRB6      30.02F
$$

PAZ038>040-043-044-047-048-054-055-060>062-067>071-241800-
EASTERN PENNSYLVANIA

CITY           SKY/WX    TMP DP  RH WIND       PRES   REMARKS
SCRANTON       MOSUNNY   90  57  32 W13       30.01F
MOUNT POCONO   MOSUNNY   83  54  36 NW8       30.08R
ALLENTOWN      MOSUNNY   93  61  34 SW8       30.00S
QUAKERTOWN*    MOSUNNY   91  59  33 CALM      30.02S
READING        MOSUNNY   94  56  27 NW13      29.99S
LANCASTER      PTSUNNY   88  61  40 W9        30.02S
COATESVILLE    CLOUDY    88  66  48 VRB6      30.05S
POTTSTOWN      MOSUNNY   91  56  30 CALM      30.01S
BLUE BELL      SUNNY     88  63  42 S7        30.00S
DOYLESTOWN     MOSUNNY   89  56  32 CALM      30.00R
WILLOW GROVE   NOT AVBL
NORTH PHILA    MOSUNNY   92  59  33 CALM      30.01S
PHILADELPHIA   PTSUNNY   93  60  33 S7        30.00R
$$




USA.gov is the U.S. government's official web portal to all federal, state and local government web resources and services.